Location: Litvinovka
(48.6667°N, 34.3500°E)
Time: 19:25:41
(UTC+00:00)

NOSS 2-2 (E) - Pass Details

Date: 18 September 2020
Orbit: 469 x 1737 km, 63.3° (Epoch: 19 October)

Event Time Altitude Azimuth Distance (km) Brightness Sun altitude
Rises 17:24:36 0° 223° (SW) 2,499 7.0 -16.3°
Reaches altitude 10° 17:26:37 10° 225° (SW) 1,635 6.0 -16.6°
Maximum altitude 17:30:08 80° 312° (NW) 518 3.2 -17.1°
Drops below altitude 10° 17:34:13 10° 40° (NE) 1,893 5.9 -17.8°
Sets 17:36:43 0° 42° (NE) 2,945 6.9 -18.1°
